Regional Weather Roundup
Issued by NWS Charleston, WV

Home | Current Version | Previous Version | Graphics & Text | Print | Product List | Glossary On
Versions: 1 2 3 4 5 6 7 8 9 10 11 12 13 14 15 16 17 18 19 20 21 22 23 24 25 26 27 28 29 30 31 32 33 34 35 36 37 38 39 40 41 42 43 44 45 46 47 48
000
ASUS41 KRLX 240310
RWRRLX
West Virginia Regional Weather Roundup
National Weather Service Charleston WV
Issued by National Weather Service Pittsburgh PA
1000 PM EST THU NOV 23 2017

Note: "fair" indicates few or no clouds below 12,000 feet with no
significant weather and/or obstructions to visibility.

WVZ003-240400-
Northern Panhandle of West Virginia

CITY           SKY/WX    TMP DP  RH WIND       PRES   REMARKS
WHEELING       CLEAR     33  21  61 S5        30.03S WCI  29
$$

WVZ009-240400-
Northwest West Virginia

CITY           SKY/WX    TMP DP  RH WIND       PRES   REMARKS
PARKERSBURG    CLEAR     29  24  82 SE5       30.07S WCI  24
$$

WVZ006-240400-
Western West Virginia

CITY           SKY/WX    TMP DP  RH WIND       PRES   REMARKS
HUNTINGTON     CLEAR     31  24  75 E3        30.03F
$$

WVZ015-240400-
West Central West Virginia

CITY           SKY/WX    TMP DP  RH WIND       PRES   REMARKS
CHARLESTON     CLEAR     32  24  72 CALM      30.04R
$$

WVZ031-240400-
North Central West Virginia

CITY           SKY/WX    TMP DP  RH WIND       PRES   REMARKS
CLARKSBURG     MOCLDY    31  23  72 CALM      30.04R
MORGANTOWN     CLOUDY    33  23  66 CALM      30.05R
$$

WVZ035-042-240400-
South Central West Virginia

CITY           SKY/WX    TMP DP  RH WIND       PRES   REMARKS
BECKLEY        CLEAR     31  18  58 CALM      30.01R
BLUEFIELD      CLEAR     35  12  38 SW5       30.01S WCI  31
$$

WVZ045-240400-
Greenbrier Valley of West Virginia

CITY           SKY/WX    TMP DP  RH WIND       PRES   REMARKS
LEWISBURG      CLEAR     29  20  68 CALM      30.02S
$$

WVZ047-240400-
Northern Mountains of West Virginia

CITY           SKY/WX    TMP DP  RH WIND       PRES   REMARKS
ELKINS         CLEAR     24  20  84 CALM      30.03S
$$

WVZ052-240400-
Eastern Panhandle of West Virginia

CITY           SKY/WX    TMP DP  RH WIND       PRES   REMARKS
MARTINSBURG    CLEAR     28  22  78 SW3       30.04R
PETERSBURG     CLEAR     26  23  89 CALM      30.04R
$$




USA.gov is the U.S. government's official web portal to all federal, state and local government web resources and services.